Location: Beaver Brook Station
(42.3793°N, 71.2203°W)
Time: 05:04:18
(UTC+00:00)

X-37B - Pass Details

Date: 24 January 2021
Orbit: 383 x 391 km, 45.0° (Epoch: 27 February)

Event Time Altitude Azimuth Distance (km) Brightness Sun altitude
Rises 22:59:49 0° 272° (W) 2,271 6.1 -13.1°
Reaches altitude 10° 23:01:55 10° 277° (W) 1,418 4.6 -13.5°
Maximum altitude 23:05:02 51° 355° (N) 497 1.0 -14.1°
Enters shadow 23:06:20 29° 57° (ENE) 741 1.5 -14.3°
